Location: Eckley
(40.9930°N, 75.8630°W)
Time: 02:17:11
(UTC-04:00)

Daily predictions for brighter satellites

Satellite Brightness Start Highest point End
(mag) Time Altitude Azimuth Time Altitude Azimuth Time Altitude Azimuth
CZ-2C R/B 4.5 00:04:06 10° NE 00:06:37 18° ENE 00:06:37 18° ENE
Cosmos 2123 Rocket 4.0 00:06:53 10° N 00:13:07 63° E 00:13:30 61° E
Cosmos 1934 Rocket 3.8 00:15:31 78° ESE 00:15:40 79° E 00:21:44 10° N
Meteor 1-13 Rocket 4.4 00:11:20 10° NNW 00:17:13 66° W 00:17:32 64° WSW
H-2A R/B 3.8 00:16:29 10° NNE 00:19:26 36° NE 00:19:26 36° NE
Cosmos 1833 Rocket 3.6 00:17:46 10° NW 00:22:38 36° W 00:22:38 36° W
ALOS 2 3.5 00:28:27 48° N 00:28:27 48° N 00:31:41 10° N
Cosmos 1503 Rocket 4.3 00:22:29 10° NNW 00:27:16 61° NE 00:27:16 61° NE
Meteor 1-11 Rocket 3.9 00:27:54 62° W 00:28:19 64° WNW 00:34:06 10° N
Meteor 2-21 Rocket 4.4 00:29:12 72° WSW 00:29:38 76° W 00:35:51 10° N
Meteor 2-4 Rocket 3.6 00:26:46 10° N 00:31:50 78° N 00:31:50 78° N
Cosmos 1943 Rocket 3.9 00:33:47 20° ENE 00:33:47 20° ENE 00:36:32 10° NE
Meteor 2-16 Rocket 4.3 00:33:34 83° SW 00:33:45 85° W 00:39:53 10° N
CZ-4B R/B 4.2 00:38:39 16° N 00:38:39 16° N 00:39:26 10° N
Gbstr 26 Del rocket 4.3 00:32:46 10° NW 00:35:48 37° NNW 00:35:48 37° NNW
Cosmos 2082 Rocket 3.9 00:33:15 10° NW 00:37:16 21° W 00:37:16 21° W
Cosmos 1455 Rocket 4.3 00:40:43 37° NNE 00:40:43 37° NNE 00:43:28 10° NNE
USA 229 DEB 4.4 00:33:06 10° NW 00:39:36 39° WSW 00:39:43 39° WSW
USA 229 4.4 00:33:11 10° NW 00:39:42 40° WSW 00:39:49 40° WSW
Iridium 4 Rocket 4.4 00:40:45 10° NNW 00:46:18 46° W 00:46:34 46° W
Cosmos 1025 Rocket 4.4 00:42:31 10° NNW 00:45:25 34° NW 00:45:25 34° NW
SeaSat 1 4.5 00:50:35 17° ENE 00:52:15 21° NE 00:55:50 10° N
ISS -0.1 00:57:09 14° N 00:57:09 14° N 00:58:12 10° NNE
NOSS 3-1 (A) 3.9 00:50:47 10° NW 00:58:27 88° NE 01:00:07 62° SE
Cosmos 1354 Rocket 4.5 00:53:38 10° NNW 00:57:55 54° NW 00:57:55 54° NW
MOS 1-B Rocket 3.9 01:04:58 82° WSW 01:05:00 82° WSW 01:11:36 10° NNW
Cosmos 1447 Rocket 4.3 01:03:16 10° N 01:09:25 83° W 01:09:25 83° W
GP-B 4.2 01:08:37 10° N 01:11:41 43° NNE 01:11:41 43° NNE
Lacrosse 5 2.4 01:14:33 58° N 01:14:33 58° N 01:18:59 10° NE
Cosmos 2100 Rocket 3.9 01:18:44 75° ESE 01:18:53 76° E 01:25:17 10° N
ATLAS 2AS CENTAUR R/B 3.6 01:11:57 10° NNW 01:19:55 54° NE 01:24:02 28° ESE
Cosmos 2061 Rocket 3.9 01:24:53 76° ESE 01:25:06 78° E 01:31:33 10° N
Cosmos 2369 Rocket 2.7 01:28:04 49° WNW 01:28:18 49° WNW 01:33:46 10° NNE
NOSS 3-1 (C) 4.3 01:22:50 10° NW 01:30:12 51° WSW 01:30:26 51° WSW
Cosmos 1992 Rocket 4.4 01:32:45 58° NW 01:32:45 58° NW 01:37:23 10° NNE
Cosmos 2219 4.3 01:29:23 10° N 01:34:37 37° ENE 01:36:02 32° E
Cosmos 1066 Rocket 4.3 01:31:38 10° N 01:36:37 66° NE 01:36:37 66° NE
Cosmos 1802 Rocket 3.8 01:41:25 86° S 01:41:34 89° E 01:47:52 10° N
Cosmos 2016 Rocket 3.9 01:41:42 76° ESE 01:41:51 76° E 01:47:57 10° N
Cosmos 1459 Rocket 3.9 01:43:50 74° W 01:43:57 74° W 01:50:04 10° N
Cosmos 44 Rocket 4.2 01:42:58 10° NNW 01:47:54 44° NE 01:48:28 42° ENE
CZ-2C R/B 3.1 01:43:20 10° N 01:48:08 50° WNW 01:48:08 50° WNW
Cosmos 1825 Rocket 4.4 01:49:15 10° N 01:52:37 49° NNE 01:52:37 49° NNE
CZ-2C R/B 3.5 01:54:50 51° NW 01:54:50 51° NW 01:58:46 10° NNW
Lacrosse 5 rocket 3.4 01:57:54 20° NNW 01:57:54 20° NNW 02:00:32 10° NNE
Cosmos 2173 Rocket 4.2 02:00:47 56° W 02:01:11 56° W 02:07:25 10° N
Cosmos 1864 Rocket 4.5 02:01:01 67° SE 02:01:36 71° E 02:07:49 10° NNE
Cosmos 1758 Rocket 4.3 02:01:12 10° N 02:04:57 50° NE 02:04:57 50° NE
Cosmos 1656 Rocket 3.6 02:12:47 78° ESE 02:12:47 78° ESE 02:18:25 10° NNE
Cosmos 1943 Rocket 2.6 02:15:17 48° WNW 02:15:37 48° WNW 02:21:03 10° NNE
Cosmos 1725 Rocket 3.8 02:15:21 76° SSW 02:15:54 88° W 02:22:07 10° N
NPP 4.4 02:15:33 10° NNE 02:20:37 40° E 02:21:09 39° ESE
Tsikada Rocket 3.9 02:16:23 10° N 02:22:42 84° W 02:23:29 70° SSW
Cosmos 1570 Rocket 4.1 02:26:24 66° ESE 02:26:28 66° ESE 02:31:47 10° NNE
SeaSat 1 2.9 02:30:22 49° WNW 02:30:22 49° WNW 02:34:15 10° NNW
BREEZE-M DEB (TANK) 3.4 02:31:08 63° NE 02:31:08 63° NE 02:34:00 10° ENE
ATLAS CENTAUR R/B 4.1 02:32:50 13° ESE 02:33:22 13° ESE 02:35:31 10° E
ISS 0.0 02:31:47 10° NNW 02:33:30 13° N 02:35:13 10° NE
Cosmos 44 4.0 02:31:41 10° NNW 02:36:48 53° NE 02:38:44 33° ESE
Cosmos 2098 Rocket 4.2 02:37:31 55° SW 02:38:42 64° W 02:46:05 10° N
BREEZE-M DEB (TANK) 4.0 02:40:43 22° NE 02:40:43 22° NE 02:41:54 10° ENE
Meteor 1-21 4.3 02:37:46 10° NNW 02:43:14 56° W 02:43:15 56° W
PSLV R/B 4.0 02:39:50 10° N 02:43:46 55° NW 02:43:46 55° NW
USA 161 4.5 02:44:41 14° ENE 02:44:47 14° ENE 02:46:19 10° NE
Cosmos 2228 3.2 02:49:18 69° NNW 02:49:18 69° NNW 02:53:09 10° N
NOSS 3-3 (A) 4.0 02:47:44 56° SW 02:49:08 78° NW 02:55:53 10° NNE
NOSS 3-3 (C) 4.0 02:47:49 56° SW 02:49:14 79° NW 02:55:59 10° NNE
Geosat 4.0 02:45:18 10° NNE 02:50:19 66° ESE 02:50:45 63° SE
ERS-2 3.5 02:48:06 10° NNE 02:51:12 34° E 02:51:12 34° E
Meteor 1-15 Rocket 4.2 02:55:35 62° SW 02:56:34 77° W 03:02:28 10° N
Lacrosse 5 4.2 02:54:08 10° WNW 02:57:46 19° NNW 03:01:23 10° NNE
ARIANE 5 R/B 4.0 02:53:32 10° NE 02:58:01 30° E 03:00:01 23° SE
Cosmos 2058 Rocket 4.1 03:07:03 34° WNW 03:07:03 34° WNW 03:10:45 10° N
Meteor 2-5 Rocket 4.3 03:01:20 10° N 03:07:06 57° ENE 03:10:44 23° SSE
Cosmos 2208 Rocket 4.1 03:07:38 52° W 03:08:19 57° WNW 03:13:30 10° NNE
ATLAS 2AS CENTAUR R/B 3.4 03:03:30 10° NW 03:10:43 38° WSW 03:11:23 37° WSW
Cosmos 1812 Rocket 3.6 03:10:24 67° SSE 03:10:52 76° E 03:15:21 10° N
Cosmos 2082 4.1 03:07:44 10° NNW 03:13:20 60° ENE 03:18:35 11° SE
Cosmos 1697 Rocket 4.3 03:13:18 17° SE 03:16:13 26° ESE 03:20:47 10° NE
Cosmos 2219 4.2 03:13:46 10° NW 03:17:55 30° W 03:17:55 30° W
Cosmos 1464 Rocket 4.0 03:16:25 40° S 03:18:53 83° E 03:25:15 10° N
CZ-2D R/B 3.3 03:14:00 10° NNE 03:19:02 36° E 03:22:04 20° SSE
Cosmos 2298 Rocket 4.3 03:14:13 10° NNW 03:19:30 66° ENE 03:23:12 20° SSE
IRS-1D 4.3 03:15:17 10° NNE 03:20:00 43° E 03:22:07 28° SSE
IRS-1C 4.0 03:16:05 10° NNE 03:21:26 84° WNW 03:22:56 49° SSW
CBERS-1 4.1 03:17:04 10° N 03:22:11 66° WNW 03:23:18 51° SW
Cosmos 1980 Rocket 4.4 03:19:55 10° SE 03:23:27 17° E 03:27:00 10° ENE
Cosmos 2227 Rocket 2.2 03:20:25 10° NNW 03:26:07 81° ENE 03:30:44 16° SSE
AQUA 4.2 03:28:19 10° N 03:32:56 50° WNW 03:33:51 43° WSW
Cosmos 972 Rocket 4.0 03:31:09 10° NNW 03:35:57 54° WSW 03:37:04 45° SW
Okean 3 Rocket 3.6 03:33:45 10° N 03:38:11 75° E 03:40:07 33° SSE
Cosmos 2278 3.7 03:38:18 40° SW 03:40:21 72° WNW 03:46:02 10° NNE
Cosmos 2369 3.6 03:38:38 40° SSW 03:40:46 80° WNW 03:46:29 10° NNE
Cosmos 1766 4.0 03:46:02 27° SSE 03:47:53 48° E 03:51:43 10° NNE
Cosmos 2297 Rocket 2.2 03:42:20 10° NNW 03:48:02 86° ENE 03:53:41 10° SSE
Cosmos 405 Rocket 2.9 03:45:50 10° NNW 03:49:51 59° W 03:50:35 49° SW
Cosmos 1513 Rocket 4.4 03:47:41 32° SSW 03:50:36 69° W 03:56:40 10° N
GEOS 3 Rocket 3.5 03:46:00 10° SSE 03:51:14 82° SW 03:56:26 10° NW
Cosmos 858 Rocket 4.4 03:47:26 10° NNW 03:52:41 80° WSW 03:57:02 15° SSE
Cosmos 468 Rocket 4.0 03:54:32 34° SW 03:56:45 71° WNW 04:01:56 10° NNE
Meteor 1-22 Rocket 4.5 03:53:31 22° S 03:57:32 80° E 04:03:40 10° NNE
Cosmos 2150 Rocket 3.9 03:53:23 10° NNW 03:58:34 64° WSW 04:02:06 20° S
Cosmos 990 Rocket 4.3 03:53:26 10° NNW 03:58:41 67° ENE 04:03:54 10° SSE
UNKNOWN OBJECT B 3.3 03:55:59 10° NNE 03:59:51 55° E 04:01:57 24° S
Meteor 1-24 Rocket 3.7 03:55:56 10° N 04:01:38 88° W 04:07:21 11° S
CZ-2D R/B 4.5 03:57:48 10° NNE 04:01:58 45° E 04:05:18 15° SSE
Cosmos 1953 3.7 04:00:54 12° SSE 04:04:17 36° E 04:08:01 10° NNE
NOSS 2-1 (D) 3.6 04:05:09 35° WSW 04:06:36 60° NW 04:11:00 10° NNE
NOSS 2-1 (C) 3.6 04:06:27 34° WSW 04:07:57 60° NW 04:12:22 10° NNE
Resurs 1-4 Rocket 2.0 04:03:42 10° N 04:08:59 79° WNW 04:12:18 23° SSW
ISS -1.3 04:07:45 10° NW 04:10:43 31° NNE 04:13:39 10° E
ATLAS CENTAUR R/B 1.8 04:09:11 29° SW 04:11:49 84° WNW 04:16:52 10° NNE
EO 1 Del DPAF 3.2 04:09:56 23° S 04:12:13 69° WSW 04:16:06 10° NNW
SL-16 R/B 2.5 04:07:20 13° S 04:12:45 62° WSW 04:18:51 10° NNW
USA 161 3.3 04:15:50 19° WNW 04:15:50 19° WNW 04:17:18 10° NW
Cosmos 1898 Rocket 3.9 04:10:16 10° NNW 04:15:20 44° WSW 04:18:52 18° SSW
Cosmos 1378 3.1 04:12:47 10° N 04:16:36 86° W 04:19:32 16° S
Cosmos 2034 Rocket 4.4 04:14:42 23° SW 04:18:13 46° WNW 04:24:11 10° N
Okean O Rocket 2.5 04:14:10 10° NNE 04:18:26 47° E 04:22:40 10° S
CZ-3 R/B 4.3 04:01:27 20° SW 04:18:57 35° S 04:27:51 10° ESE
NOSS 2-1 (E) 4.0 04:21:03 25° WSW 04:23:04 46° NW 04:27:31 10° NNE
Cosmos 1805 3.9 04:19:48 12° S 04:23:20 53° E 04:27:10 10° NNE
CZ-4B R/B 4.1 04:18:50 10° NNE 04:24:12 47° E 04:29:26 10° S
ERS-2 4.1 04:22:43 10° NNW 04:25:02 16° WNW 04:26:02 15° W
EP 2 4.3 04:27:14 37° WSW 04:28:02 65° NW 04:30:50 10° NNE
Cosmos 1441 Rocket 3.2 04:24:54 10° NNW 04:28:53 75° W 04:32:52 10° S
Cosmos 1707 4.1 04:26:41 10° NW 04:29:45 22° W 04:30:33 21° WSW
Cosmos 1076 Rocket 3.5 04:25:40 10° NNW 04:29:57 61° W 04:33:51 12° S
Cosmos 841 Rocket 3.5 04:26:34 18° SSW 04:30:33 83° WNW 04:35:52 10° NNE
Milstar 3 Cent rocket 3.6 04:28:17 19° SSW 04:31:20 28° SSE 04:38:40 10° ESE
Cosmos 1937 Rocket 3.8 04:26:37 10° NNW 04:31:31 43° WSW 04:36:24 10° S
NOSS 3-4 (A) 3.8 04:26:46 10° NW 04:33:44 69° WSW 04:41:06 10° SSE
NOSS 3-4 (C) 3.8 04:26:52 10° NW 04:33:52 70° WSW 04:41:17 10° SSE
BREEZE-M DEB (TANK) 3.8 04:29:58 11° W 04:34:27 35° NNW 04:36:49 10° NE
Nadezhda 4 Rocket 4.2 04:28:34 10° NNW 04:34:30 50° W 04:40:27 10° SSW
ARIANE 5 R/B 3.5 04:32:34 10° N 04:37:06 33° WNW 04:40:21 17° WSW
Cosmos 1763 Rocket 3.6 04:35:23 18° SW 04:39:19 61° WNW 04:44:29 10° NNE
GPS 2-04 Rocket1 3.4 04:40:11 20° SW 04:42:17 35° S 04:45:44 10° ESE
MTI 4.3 04:40:47 17° SSW 04:42:59 38° W 04:46:06 10° NNW
BREEZE-M DEB (TANK) 4.4 04:44:12 10° W 04:45:41 13° W 04:45:41 13° W
Cosmos 1656 4.3 04:42:41 16° SW 04:46:54 43° WNW 04:52:19 10° N
Cosmos 1408 Rocket 4.0 04:44:14 10° NNW 04:48:21 40° W 04:52:27 10° SSW
Cosmos 1766 Rocket 4.0 04:44:50 10° NNW 04:49:00 43° W 04:53:11 10° SSW
Thor Agena Rocket 3.7 04:45:23 10° SSE 04:50:25 77° ENE 04:55:28 10° N
EP 1 4.2 04:49:40 20° SW 04:51:11 65° NW 04:53:47 10° NNE
Cosmos-2242 3.2 04:49:20 12° SSW 04:53:19 55° W 04:57:34 10° N
CZ-4B R/B 2.9 04:50:10 10° NNE 04:54:11 76° ESE 04:57:59 10° S
ASTRO E2 4.3 04:52:59 14° SW 04:54:41 18° S 04:57:30 10° SE
Cosmos 1437 2.7 04:54:12 10° NNW 04:57:32 77° W 05:00:52 10° S
Okean-O 3.9 04:53:42 10° NNE 04:57:55 42° E 05:02:06 10° S
CZ-2D R/B 3.2 04:54:15 10° N 04:58:58 30° WNW 05:03:24 11° SW
CZ-4B DEB 4.3 04:53:36 10° NNE 04:59:12 87° ESE 05:04:43 10° SSW
Cosmos 1697 Rocket 3.2 04:55:03 13° SW 04:59:53 45° WNW 05:05:19 10° NNE
CZ-2C R/B 3.9 04:55:56 10° S 05:00:34 56° W 05:05:09 10° NNW
In-Cosmos 22 4.2 04:57:38 10° NNW 05:02:46 53° W 05:07:53 10° S
Cosmos 2026 Rocket 4.0 04:59:39 10° NNW 05:06:00 71° W 05:12:12 10° S
Cosmos 1980 Rocket 2.3 05:01:16 10° SW 05:06:50 64° WNW 05:12:28 10° NNE
Cosmos 1634 Rocket 4.3 05:01:22 10° SSW 05:07:22 50° WNW 05:13:28 10° N
PSLV R/B 4.3 05:04:33 10° NNE 05:08:42 53° E 05:12:51 10° S
PSLV R/B 4.3 05:05:42 10° N 05:09:22 40° WNW 05:12:56 10° SW
Cosmos 2227 Rocket 3.9 05:06:49 10° WNW 05:09:22 13° W 05:11:55 10° SW
Cosmos 1842 Rocket 3.6 05:05:27 10° SSW 05:09:55 77° W 05:14:26 10° N
DELTA 2 R/B (2) 3.6 05:08:56 12° WSW 05:10:40 38° S 05:12:21 10° ESE
Cosmos 540 Rocket 3.5 05:10:12 10° SSW 05:15:22 86° WNW 05:20:35 10° NNE
Cosmos 2322 Rocket 2.7 05:11:07 10° S 05:16:37 61° ESE 05:22:10 10° NNE
Cosmos 1470 2.8 05:13:00 10° S 05:16:56 85° W 05:20:55 10° N
Cosmos 1674 2.6 05:14:02 10° N 05:17:50 81° W 05:21:35 10° S
Cosmos 1544 3.4 05:15:54 10° SSW 05:19:27 47° W 05:23:00 10° N
Abrixas 3.5 05:16:47 10° NW 05:19:48 50° NNE 05:22:48 10° ESE
MOZ.5/SAFIR/RUBIN 5/SL-8 4.3 05:17:54 10° SSW 05:22:19 38° W 05:26:42 10° NNW
USA 81 4.4 05:17:58 10° SSW 05:23:04 48° W 05:28:11 10° N
ADEOS II 2.6 05:18:35 10° NNE 05:23:49 63° E 05:29:00 10° S
